QPF
0.00 0.00 0.00 0.00 0.00 0.00 0.00 0.00 0.00 0.00 0.00 0.00 0.00 0.00 0.00 0.00 0.00 0.00 0.00 0.00 0.00 0.00 0.00 0.00 0.00 0.00 0.00 0.00 0.00 0.00 0.00 0.01 0.01 0.00 0.00 0.00 0.01 0.00 0.00 0.00 0.00 0.00 0.00 0.00 0.00 0.00 0.00 0.00 0.00
0.00 0.00 0.00 0.00 0.00 0.00 0.00 0.00 0.00 0.00 0.00 0.00 0.00 0.00 0.00 0.00 0.00 0.00 0.00 0.00 0.00 0.00 0.00 0.00 0.00 0.00 0.00 0.00 0.00 0.00 0.00 0.00 0.00 0.00 0.00 0.00 0.00 0.00 0.00 0.00 0.00 0.00 0.00 0.00 0.00 0.00 0.00 0.00 0.00
0.00 0.00 0.00 0.00 0.00 0.00 0.00 0.00 0.00 0.00 0.00 0.00 0.00 0.00 0.00 0.00 0.00 0.00 0.00 0.00 0.00 0.00 0.00 0.00 0.00 0.00 0.00 0.00 0.00 0.00 0.00 0.00 0.00 0.00 0.00 0.00 0.00 0.00 0.00 0.00 0.00 0.00 0.00 0.00 0.00 0.00 0.00 0.00 0.00
0.00 0.00 0.00 0.00 0.00 0.00 0.00 0.00 0.00 0.00 0.00 0.00 0.00 0.00 0.00 0.00 0.00 0.00 0.00 0.00 0.00 0.00 0.00 0.00 0.00 0.00 0.00 0.00 0.00 0.00 0.00 0.00 0.00 0.00 0.00 0.00 0.00 0.00 0.00 0.01 0.00 0.00 0.00 0.00 0.00 0.02 0.01 0.00 0.00
0.00 0.00 0.00 0.00 0.00 0.00 0.00 0.00 0.00 0.00 0.00 0.00 0.00 0.00 0.00 0.00 0.00 0.00 0.00 0.00 0.00 0.00 0.00 0.00 0.00 0.00 0.00 0.00 0.00 0.00 0.00 0.00 0.00 0.00 0.00 0.01 0.01 0.00 0.02 0.04 0.03 0.00 0.00 0.01 0.04 0.03 0.00 0.00 0.00
0.00 0.00 0.00 0.00 0.00 0.00 0.00 0.00 0.00 0.00 0.00 0.00 0.00 0.00 0.00 0.00 0.00 0.00 0.00 0.00 0.00 0.00 0.00 0.00 0.00 0.00 0.00 0.00 0.01 0.02 0.01 0.01 0.00 0.00 0.01 0.02 0.02 0.01 0.05 0.00 0.00 0.00 0.00 0.01 0.00 0.00 0.00 0.00 0.00
0.00 0.00 0.00 0.00 0.00 0.00 0.00 0.00 0.00 0.00 0.00 0.00 0.00 0.00 0.00 0.00 0.00 0.00 0.00 0.00 0.00 0.00 0.00 0.00 0.00 0.00 0.00 0.01 0.02 0.01 0.00 0.00 0.00 0.00 0.00 0.01 0.03 0.04 0.03 0.00 0.00 0.00 0.00 0.00 0.00 0.00 0.02 0.00 0.01
0.00 0.00 0.00 0.00 0.00 0.00 0.00 0.00 0.00 0.00 0.00 0.00 0.00 0.00 0.00 0.00 0.00 0.00 0.00 0.00 0.00 0.00 0.00 0.00 0.00 0.00 0.00 0.00 0.00 0.02 0.00 0.05 0.00 0.01 0.01 0.05 0.02 0.01 0.01 0.01 0.00 0.00 0.01 0.02 0.03 0.12 0.15 0.10 0.07
0.00 0.00 0.00 0.00 0.00 0.00 0.00 0.00 0.00 0.00 0.00 0.00 0.00 0.00 0.00 0.00 0.00 0.00 0.00 0.00 0.00 0.00 0.00 0.00 0.00 0.00 0.00 0.00 0.00 0.00 0.01 0.04 0.00 0.02 0.01 0.03 0.01 0.00 0.01 0.00 0.00 0.00 0.02 0.02 0.02 0.11 0.19 0.04 0.03
0.00 0.00 0.00 0.00 0.00 0.00 0.00 0.00 0.00 0.00 0.00 0.00 0.00 0.00 0.00 0.00 0.00 0.00 0.00 0.00 0.00 0.00 0.00 0.00 0.00 0.00 0.00 0.00 0.00 0.00 0.00 0.00 0.00 0.00 0.00 0.00 0.00 0.00 0.01 0.01 0.00 0.00 0.00 0.00 0.01 0.11 0.07 0.03 0.01
0.00 0.00 0.00 0.00 0.00 0.00 0.00 0.00 0.00 0.00 0.00 0.00 0.00 0.00 0.00 0.00 0.00 0.00 0.00 0.00 0.00 0.00 0.00 0.00 0.00 0.00 0.00 0.00 0.00 0.01 0.00 0.00 0.00 0.00 0.01 0.00 0.00 0.00 0.00 0.00 0.00 0.00 0.00 0.00 0.01 0.05 0.22 0.14 0.00
0.00 0.00 0.00 0.00 0.00 0.00 0.00 0.00 0.00 0.00 0.00 0.00 0.00 0.00 0.00 0.00 0.00 0.00 0.00 0.00 0.00 0.00 0.00 0.00 0.00 0.00 0.00 0.00 0.00 0.00 0.00 0.00 0.00 0.00 0.00 0.00 0.00 0.00 0.00 0.00 0.00 0.00 0.00 0.00 0.00 0.02 0.07 0.16 0.02
0.00 0.00 0.00 0.00 0.00 0.00 0.00 0.00 0.00 0.00 0.00 0.00 0.00 0.00 0.00 0.00 0.00 0.00 0.00 0.00 0.00 0.00 0.00 0.00 0.00 0.00 0.00 0.00 0.00 0.00 0.00 0.00 0.00 0.00 0.00 0.00 0.00 0.00 0.00 0.00 0.00 0.00 0.00 0.00 0.00 0.00 0.00 0.08 0.04
0.00 0.00 0.00 0.00 0.00 0.00 0.00 0.00 0.00 0.00 0.00 0.00 0.00 0.00 0.00 0.00 0.00 0.00 0.00 0.00 0.00 0.00 0.00 0.00 0.00 0.00 0.00 0.00 0.00 0.00 0.00 0.00 0.00 0.00 0.00 0.00 0.00 0.00 0.00 0.00 0.00 0.00 0.00 0.00 0.00 0.00 0.00 0.00 0.00
0.00 0.00 0.00 0.00 0.00 0.00 0.00 0.00 0.00 0.00 0.00 0.00 0.00 0.00 0.00 0.00 0.00 0.00 0.00 0.00 0.00 0.00 0.00 0.00 0.00 0.00 0.00 0.00 0.00 0.00 0.00 0.00 0.00 0.00 0.00 0.00 0.00 0.00 0.00 0.00 0.00 0.00 0.00 0.00 0.00 0.00 0.00 0.00 0.00
0.00 0.00 0.00 0.00 0.00 0.00 0.00 0.00 0.00 0.00 0.00 0.00 0.00 0.00 0.00 0.00 0.00 0.00 0.00 0.00 0.00 0.00 0.00 0.00 0.00 0.00 0.00 0.00 0.00 0.00 0.00 0.00 0.00 0.00 0.00 0.00 0.00 0.00 0.00 0.00 0.00 0.00 0.00 0.00 0.00 0.00 0.00 0.00 0.00
0.00 0.00 0.00 0.00 0.00 0.00 0.00 0.00 0.00 0.00 0.00 0.00 0.00 0.00 0.00 0.00 0.00 0.00 0.00 0.00 0.00 0.00 0.00 0.00 0.00 0.00 0.00 0.00 0.00 0.00 0.00 0.00 0.00 0.00 0.00 0.00 0.00 0.00 0.00 0.00 0.00 0.00 0.00 0.00 0.00 0.00 0.00 0.00 0.03
0.00 0.00 0.00 0.00 0.00 0.00 0.00 0.00 0.00 0.00 0.00 0.00 0.00 0.00 0.00 0.00 0.00 0.00 0.00 0.00 0.00 0.00 0.00 0.00 0.00 0.00 0.00 0.00 0.00 0.00 0.00 0.00 0.00 0.00 0.00 0.00 0.00 0.00 0.00 0.00 0.00 0.00 0.00 0.00 0.00 0.00 0.00 0.00 0.00
0.00 0.00 0.00 0.00 0.00 0.00 0.00 0.00 0.00 0.00 0.00 0.00 0.00 0.00 0.00 0.00 0.00 0.00 0.00 0.00 0.00 0.00 0.00 0.00 0.00 0.00 0.00 0.00 0.00 0.00 0.00 0.00 0.00 0.00 0.00 0.00 0.00 0.00 0.00 0.00 0.00 0.00 0.00 0.00 0.00 0.00 0.03 0.00 0.00
0.00 0.00 0.00 0.00 0.00 0.00 0.00 0.00 0.00 0.00 0.00 0.00 0.00 0.00 0.00 0.00 0.00 0.00 0.00 0.00 0.00 0.00 0.00 0.00 0.00 0.00 0.00 0.00 0.00 0.00 0.00 0.00 0.00 0.00 0.00 0.00 0.00 0.00 0.00 0.00 0.00 0.00 0.00 0.00 0.00 0.01 0.01 0.00 0.01
0.00 0.00 0.00 0.00 0.00 0.00 0.00 0.00 0.00 0.00 0.00 0.00 0.00 0.00 0.00 0.00 0.00 0.00 0.00 0.00 0.00 0.00 0.00 0.00 0.00 0.00 0.00 0.00 0.00 0.00 0.00 0.00 0.00 0.00 0.00 0.00 0.00 0.00 0.00 0.00 0.00 0.00 0.00 0.00 0.00 0.00 0.02 0.02 0.01
0.00 0.00 0.00 0.00 0.00 0.00 0.00 0.00 0.00 0.00 0.00 0.00 0.00 0.00 0.00 0.00 0.00 0.00 0.00 0.00 0.00 0.00 0.00 0.00 0.00 0.00 0.00 0.00 0.00 0.00 0.00 0.00 0.00 0.00 0.00 0.00 0.00 0.00 0.00 0.00 0.00 0.00 0.00 0.00 0.00 0.00 0.03 0.06 0.01
0.00 0.00 0.00 0.00 0.00 0.00 0.00 0.00 0.00 0.00 0.00 0.00 0.00 0.00 0.00 0.00 0.00 0.00 0.00 0.00 0.00 0.00 0.00 0.00 0.00 0.00 0.00 0.00 0.00 0.00 0.00 0.00 0.00 0.00 0.00 0.00 0.00 0.00 0.00 0.00 0.00 0.00 0.00 0.01 0.01 0.05 0.04 0.05 0.05
0.00 0.00 0.00 0.00 0.00 0.00 0.00 0.00 0.00 0.00 0.00 0.00 0.00 0.00 0.00 0.00 0.00 0.00 0.00 0.00 0.00 0.00 0.00 0.00 0.00 0.00 0.00 0.00 0.00 0.00 0.00 0.00 0.00 0.00 0.00 0.00 0.00 0.00 0.00 0.00 0.00 0.00 0.00 0.01 0.03 0.05 0.11 0.10 0.10
0.00 0.00 0.00 0.00 0.00 0.00 0.00 0.00 0.00 0.00 0.00 0.00 0.00 0.00 0.00 0.00 0.00 0.00 0.00 0.00 0.00 0.00 0.00 0.00 0.00 0.00 0.00 0.00 0.00 0.00 0.00 0.00 0.00 0.00 0.00 0.00 0.00 0.00 0.00 0.00 0.00 0.00 0.00 0.01 0.02 0.02 0.03 0.08 0.12
0.00 0.00 0.00 0.00 0.00 0.00 0.00 0.00 0.00 0.00 0.00 0.00 0.00 0.00 0.00 0.00 0.00 0.00 0.00 0.00 0.00 0.00 0.00 0.00 0.00 0.00 0.00 0.00 0.00 0.00 0.00 0.00 0.00 0.00 0.00 0.00 0.00 0.00 0.00 0.00 0.00 0.00 0.00 0.00 0.00 0.00 0.02 0.02 0.02
0.00 0.00 0.00 0.00 0.00 0.00 0.00 0.00 0.00 0.00 0.00 0.00 0.00 0.00 0.00 0.00 0.00 0.00 0.00 0.00 0.00 0.00 0.00 0.00 0.00 0.00 0.00 0.00 0.00 0.00 0.00 0.00 0.00 0.00 0.00 0.00 0.00 0.00 0.00 0.00 0.00 0.00 0.00 0.00 0.00 0.00 0.00 0.01 0.01
0.00 0.00 0.00 0.00 0.00 0.00 0.00 0.00 0.00 0.00 0.00 0.00 0.00 0.00 0.00 0.00 0.00 0.00 0.00 0.00 0.00 0.00 0.00 0.00 0.00 0.00 0.00 0.00 0.00 0.00 0.00 0.00 0.00 0.00 0.00 0.00 0.00 0.00 0.00 0.00 0.00 0.00 0.01 0.01 0.01 0.00 0.00 0.01 0.01
0.00 0.00 0.00 0.00 0.00 0.00 0.00 0.00 0.00 0.00 0.00 0.00 0.00 0.00 0.00 0.00 0.00 0.00 0.00 0.00 0.00 0.00 0.00 0.00 0.00 0.00 0.00 0.00 0.00 0.00 0.00 0.00 0.00 0.00 0.00 0.00 0.00 0.00 0.00 0.00 0.00 0.01 0.01 0.03 0.02 0.02 0.02 0.01 0.02
0.00 0.00 0.00 0.00 0.00 0.00 0.00 0.00 0.00 0.00 0.00 0.00 0.00 0.00 0.00 0.00 0.00 0.00 0.00 0.00 0.00 0.00 0.00 0.00 0.00 0.00 0.00 0.00 0.00 0.00 0.00 0.00 0.00 0.00 0.00 0.00 0.01 0.01 0.01 0.02 0.04 0.05 0.04 0.03 0.03 0.02 0.04 0.03 0.07
MSLP
1009.30 1008.62 1008.64 1007.75 1006.47 1004.15 1003.89 1004.93 1004.82 1005.54 1006.15 1006.80 1007.26 1007.62 1007.79 1008.35 1008.69 1009.88 1011.43 1011.63 1012.28 1012.95 1014.10 1015.12 1015.57 1015.75 1016.03 1016.34 1016.51 1016.61 1016.93 1017.23 1017.48 1017.60 1017.71 1017.90 1018.09 1018.24 1018.39 1018.48 1018.56 1018.64 1018.64 1018.72 1018.73 1018.72 1018.86 1018.98 1019.10
1008.36 1008.72 1008.54 1006.59 1004.91 1003.46 1004.33 1004.47 1004.81 1005.53 1006.12 1006.93 1007.67 1007.95 1008.09 1008.81 1009.97 1010.78 1011.27 1011.98 1012.41 1012.88 1013.94 1014.64 1015.63 1015.80 1016.13 1016.51 1016.65 1016.92 1017.15 1017.39 1017.58 1017.74 1017.86 1018.10 1018.24 1018.39 1018.46 1018.49 1018.62 1018.71 1018.72 1018.84 1018.96 1018.97 1019.03 1019.12 1019.24
1008.79 1008.55 1007.06 1004.83 1003.84 1003.44 1004.15 1004.71 1005.21 1006.16 1006.67 1007.01 1007.47 1008.00 1008.47 1009.45 1010.62 1010.69 1011.16 1012.13 1012.55 1013.07 1013.70 1014.59 1015.62 1015.92 1016.28 1016.56 1016.81 1017.01 1017.30 1017.56 1017.69 1017.91 1018.04 1018.26 1018.39 1018.48 1018.52 1018.57 1018.65 1018.75 1018.91 1019.01 1019.03 1019.14 1019.22 1019.27 1019.38
1008.12 1007.60 1006.35 1004.61 1004.03 1004.62 1004.45 1004.95 1005.68 1006.20 1006.78 1007.14 1007.43 1007.91 1009.37 1010.46 1010.49 1010.84 1011.93 1012.28 1012.74 1013.08 1013.74 1015.23 1015.68 1016.04 1016.39 1016.70 1016.91 1017.15 1017.44 1017.65 1017.79 1018.01 1018.18 1018.28 1018.47 1018.53 1018.59 1018.64 1018.78 1018.85 1018.98 1019.12 1019.15 1019.26 1019.39 1019.47 1019.52
1007.81 1006.68 1004.45 1003.98 1004.18 1004.59 1004.90 1005.41 1005.79 1005.96 1006.48 1007.03 1007.57 1008.21 1009.54 1010.65 1011.06 1011.59 1012.13 1012.50 1012.83 1013.30 1013.77 1015.24 1015.88 1016.15 1016.50 1016.85 1017.09 1017.34 1017.62 1017.75 1017.88 1018.01 1018.18 1018.24 1018.37 1018.48 1018.65 1018.74 1018.82 1018.86 1019.09 1019.21 1019.37 1019.57 1019.53 1019.62 1019.66
1006.68 1005.96 1004.01 1003.86 1004.28 1004.73 1004.97 1005.50 1005.82 1006.04 1006.74 1007.46 1007.82 1008.40 1009.87 1011.13 1011.43 1011.93 1012.35 1012.57 1012.68 1013.23 1013.83 1014.93 1016.03 1016.34 1016.68 1016.98 1017.21 1017.49 1017.71 1017.75 1017.91 1018.00 1018.17 1018.32 1018.42 1018.53 1018.73 1018.71 1018.84 1018.99 1019.12 1019.32 1019.42 1019.51 1019.59 1019.61 1019.64
1006.56 1004.99 1004.70 1004.02 1004.36 1004.65 1005.15 1005.61 1005.41 1005.85 1006.66 1007.26 1007.82 1008.12 1010.10 1010.97 1011.52 1012.01 1012.58 1012.81 1012.86 1013.27 1013.80 1014.59 1015.64 1016.25 1016.88 1017.13 1017.38 1017.53 1017.75 1017.82 1017.96 1018.01 1018.15 1018.30 1018.43 1018.56 1018.72 1018.73 1018.87 1019.07 1019.22 1019.33 1019.41 1019.42 1019.46 1019.50 1019.54
1006.84 1005.68 1004.61 1004.30 1004.31 1004.91 1005.42 1005.64 1005.94 1005.70 1006.55 1007.52 1007.80 1007.71 1009.30 1010.41 1011.47 1012.09 1012.68 1012.99 1013.28 1013.54 1013.71 1014.31 1015.22 1015.71 1016.10 1016.49 1017.34 1017.63 1017.84 1018.01 1018.07 1018.08 1018.25 1018.40 1018.44 1018.51 1018.61 1018.77 1018.78 1018.99 1019.14 1019.27 1019.36 1019.40 1019.60 1019.54 1019.48
1007.04 1005.11 1004.56 1004.79 1004.74 1004.89 1005.49 1005.43 1006.06 1006.36 1006.65 1007.24 1007.87 1007.84 1008.39 1010.44 1011.31 1011.86 1012.57 1013.09 1013.61 1013.84 1013.87 1013.99 1014.50 1015.78 1015.87 1016.37 1016.59 1017.53 1017.82 1018.09 1018.06 1018.04 1018.27 1018.42 1017.52 1017.59 1018.09 1018.00 1018.66 1018.99 1019.19 1019.28 1019.27 1019.12 1019.43 1019.28 1019.20
1006.37 1004.81 1004.72 1005.21 1005.26 1005.02 1005.21 1005.16 1005.52 1005.89 1006.44 1007.13 1008.04 1008.63 1009.38 1010.60 1011.24 1011.46 1012.01 1012.42 1013.10 1013.55 1013.87 1014.09 1013.98 1014.59 1015.68 1015.60 1015.86 1016.65 1016.68 1016.99 1017.23 1017.20 1017.91 1017.64 1016.93 1017.03 1017.39 1017.82 1018.68 1018.99 1019.09 1019.05 1018.91 1018.93 1019.04 1018.97 1017.72
1006.32 1005.15 1005.46 1005.31 1005.15 1005.17 1004.84 1005.05 1005.30 1005.45 1005.82 1006.21 1007.37 1008.84 1009.85 1010.42 1010.97 1011.23 1011.62 1011.89 1012.47 1013.04 1013.53 1014.05 1014.18 1014.53 1014.71 1015.24 1015.79 1016.77 1016.01 1016.15 1017.14 1017.63 1017.82 1017.27 1016.86 1017.33 1017.41 1017.28 1017.58 1018.14 1018.49 1018.11 1018.07 1017.91 1018.46 1018.48 1018.01
1005.86 1005.78 1005.84 1005.50 1005.16 1004.89 1004.81 1004.96 1005.17 1005.50 1005.77 1006.36 1007.34 1008.78 1009.57 1010.13 1010.51 1010.91 1011.25 1011.72 1012.24 1012.82 1013.28 1013.71 1014.09 1014.54 1014.85 1015.07 1015.51 1015.47 1015.68 1015.95 1016.12 1016.61 1017.33 1017.11 1017.37 1017.14 1017.30 1017.03 1017.32 1017.83 1017.77 1017.75 1017.93 1017.33 1017.30 1018.22 1017.89
1005.91 1005.64 1005.48 1005.32 1004.82 1004.92 1005.05 1005.08 1005.10 1005.71 1006.36 1006.80 1007.84 1008.90 1009.48 1009.78 1010.32 1010.75 1011.15 1011.69 1012.22 1012.75 1013.23 1013.53 1014.12 1014.83 1015.02 1015.47 1015.47 1015.71 1015.52 1015.92 1015.85 1016.21 1016.78 1016.98 1017.02 1017.06 1017.10 1017.22 1017.29 1017.22 1017.14 1017.31 1017.56 1017.32 1017.34 1017.57 1017.72
1006.00 1005.71 1005.33 1005.22 1004.88 1004.78 1004.81 1005.05 1005.36 1006.16 1006.62 1007.21 1008.05 1008.66 1009.19 1009.51 1010.03 1010.51 1010.98 1011.36 1012.02 1012.53 1013.01 1013.50 1014.09 1014.74 1015.11 1015.44 1015.62 1015.61 1015.55 1015.61 1015.94 1015.91 1016.16 1017.03 1016.97 1017.01 1016.87 1017.07 1017.05 1017.02 1017.02 1016.95 1016.89 1016.94 1017.12 1017.10 1017.09
1005.83 1005.07 1004.89 1004.74 1005.34 1004.84 1005.03 1004.76 1005.03 1006.06 1006.48 1007.20 1007.77 1008.47 1008.99 1009.33 1009.78 1010.17 1010.64 1011.01 1011.47 1011.88 1012.41 1013.04 1013.81 1014.21 1014.96 1015.29 1015.45 1015.61 1015.39 1015.33 1015.47 1015.65 1016.03 1016.48 1016.76 1016.96 1017.09 1016.69 1016.64 1016.56 1016.64 1017.03 1017.07 1017.01 1016.70 1016.80 1016.57
1005.05 1004.87 1003.91 1004.35 1004.71 1005.16 1005.02 1004.23 1005.36 1006.10 1006.33 1006.82 1007.45 1008.13 1008.84 1009.08 1009.36 1009.72 1010.13 1010.59 1010.98 1011.51 1012.14 1012.82 1013.21 1013.63 1014.27 1014.64 1014.90 1015.02 1015.03 1015.06 1014.97 1015.17 1015.43 1016.08 1016.39 1016.60 1016.70 1016.41 1016.17 1016.12 1016.27 1016.30 1016.28 1016.39 1016.42 1016.40 1016.17
1004.68 1003.83 1003.99 1003.79 1004.18 1004.18 1004.30 1003.90 1004.89 1005.70 1005.94 1006.37 1007.11 1007.62 1008.16 1008.59 1008.96 1009.37 1009.72 1010.10 1010.45 1011.13 1011.74 1012.47 1012.92 1013.18 1013.58 1014.28 1014.54 1014.74 1014.77 1014.82 1014.65 1014.69 1014.77 1015.15 1015.72 1015.96 1016.36 1015.87 1015.64 1015.99 1015.90 1015.78 1015.83 1015.75 1016.05 1016.09 1016.24
1003.83 1003.22 1003.31 1003.25 1003.66 1003.84 1003.58 1003.45 1003.90 1004.89 1005.44 1005.68 1006.42 1006.98 1007.34 1007.70 1008.02 1008.71 1009.28 1009.57 1009.97 1010.45 1011.38 1012.01 1012.53 1012.96 1013.35 1013.75 1014.18 1014.07 1014.12 1014.19 1014.15 1014.15 1014.20 1014.46 1014.85 1015.42 1015.62 1015.54 1015.46 1015.65 1015.62 1015.41 1015.45 1015.77 1015.78 1015.84 1015.80
1003.93 1003.37 1002.88 1002.81 1003.47 1003.41 1002.94 1002.97 1002.96 1003.63 1004.62 1005.00 1005.41 1006.03 1006.55 1006.72 1007.05 1007.64 1008.34 1008.96 1009.42 1009.73 1010.39 1011.09 1011.75 1012.25 1012.91 1013.12 1013.15 1013.24 1013.19 1013.46 1013.52 1013.59 1013.88 1014.22 1014.57 1014.71 1015.13 1015.07 1014.89 1015.18 1015.36 1015.21 1015.39 1015.71 1015.97 1015.86 1015.63
1003.42 1002.74 1002.35 1002.61 1003.01 1003.05 1002.44 1001.79 1002.43 1003.03 1003.79 1004.34 1004.76 1005.04 1005.47 1005.87 1006.17 1006.70 1007.34 1007.94 1008.45 1008.86 1009.50 1010.21 1010.85 1011.47 1012.09 1012.17 1012.33 1012.35 1012.54 1012.61 1012.76 1012.80 1013.05 1013.65 1013.92 1014.12 1014.30 1014.51 1014.38 1014.38 1014.65 1015.06 1015.42 1015.59 1015.24 1014.82 1015.08
1002.50 1002.38 1002.26 1002.19 1002.53 1002.61 1002.11 1001.60 1001.88 1002.93 1003.25 1003.76 1004.01 1004.25 1004.57 1004.77 1005.13 1005.71 1006.38 1006.91 1007.34 1007.78 1008.46 1009.22 1010.11 1010.80 1011.18 1011.48 1011.68 1012.03 1012.30 1012.25 1012.04 1012.11 1012.36 1012.70 1013.11 1013.30 1013.51 1013.67 1013.98 1014.10 1014.42 1014.25 1014.51 1014.94 1015.13 1014.83 1014.73
1001.43 1002.71 1002.36 1002.01 1001.51 1000.70 1001.66 1000.71 1001.51 1001.66 1001.85 1002.65 1002.91 1003.38 1003.51 1003.83 1004.52 1004.91 1005.38 1005.78 1006.22 1006.75 1007.50 1008.21 1009.03 1009.77 1010.28 1010.90 1010.96 1010.91 1010.90 1011.40 1010.86 1011.23 1011.97 1012.13 1012.43 1012.89 1012.73 1012.88 1013.17 1013.60 1013.71 1013.58 1013.89 1014.07 1014.47 1014.90 1014.67
1002.47 1002.53 1002.01 1001.73 1001.21 1000.93 1001.18 1000.04 1000.73 1001.34 1001.21 1001.25 1001.33 1001.84 1002.33 1002.80 1003.38 1003.86 1004.37 1004.89 1005.36 1005.85 1006.46 1007.16 1008.11 1008.96 1009.60 1009.83 1010.47 1010.41 1010.63 1010.28 1010.82 1011.12 1011.77 1011.53 1011.80 1012.01 1012.50 1012.47 1012.40 1012.64 1012.94 1013.08 1013.37 1013.66 1013.95 1014.25 1014.43
1002.56 1002.18 1001.78 1001.43 1000.63 999.99 1001.09 1000.40 999.80 999.68 1000.18 1000.39 1000.56 1001.00 1001.52 1001.94 1002.57 1003.06 1003.51 1004.13 1004.72 1005.37 1006.01 1006.58 1007.50 1008.48 1009.18 1009.66 1009.86 1010.22 1010.06 1010.00 1010.14 1010.10 1010.63 1011.17 1011.25 1011.08 1011.53 1011.69 1011.93 1012.09 1012.10 1012.26 1012.60 1012.90 1013.30 1013.44 1013.59
1002.09 1000.55 999.67 999.68 999.25 999.92 1001.18 1000.42 999.66 999.85 1000.17 1000.10 1000.05 1000.33 1000.75 1001.36 1002.07 1002.59 1003.15 1003.73 1004.33 1004.92 1005.72 1006.33 1007.22 1008.03 1008.59 1008.98 1009.28 1009.52 1009.82 1009.98 1009.91 1009.91 1009.83 1009.84 1010.09 1010.43 1010.40 1010.53 1010.72 1010.97 1011.31 1011.51 1011.77 1011.79 1012.43 1012.40 1013.03
1000.86 1000.52 999.77 999.79 999.39 999.91 1001.12 999.98 999.62 1000.10 1000.42 1000.56 1000.70 1000.66 1000.64 1001.17 1001.30 1001.59 1002.22 1003.12 1003.91 1004.59 1005.51 1006.27 1006.90 1007.57 1008.03 1008.40 1008.78 1009.11 1009.33 1009.30 1009.19 1009.17 1009.28 1009.19 1009.16 1009.20 1009.56 1009.71 1010.08 1010.32 1010.42 1010.82 1011.04 1011.32 1011.77 1012.20 1012.83
1001.15 1000.47 1000.59 1000.06 1000.25 1000.14 999.77 999.97 999.53 1000.16 1000.17 1000.30 1000.36 1000.49 1000.38 1000.66 1000.84 1001.45 1002.03 1002.89 1003.64 1004.37 1005.12 1005.91 1006.65 1007.21 1007.66 1008.09 1008.48 1008.77 1008.95 1009.02 1008.84 1008.81 1008.82 1008.70 1008.97 1008.90 1009.09 1009.24 1009.41 1009.74 1009.86 1010.02 1009.97 1010.56 1010.91 1011.86 1012.02
1001.45 1001.37 1000.47 999.82 1000.02 999.82 999.30 999.71 999.21 999.98 1000.15 1000.37 1000.07 1000.02 999.98 1000.11 1000.91 1001.44 1001.82 1002.80 1003.59 1004.18 1004.97 1005.83 1006.59 1007.09 1007.44 1007.85 1008.08 1008.20 1008.42 1008.57 1008.65 1008.71 1008.57 1008.45 1008.33 1008.34 1008.37 1008.47 1008.52 1008.69 1008.86 1009.21 1009.49 1009.72 1010.40 1010.83 1011.36
1001.06 1000.63 1000.99 1000.80 1000.85 1000.24 999.68 998.99 999.79 1000.30 1000.63 1000.51 1000.22 1000.02 1000.11 1000.23 1000.79 1001.41 1001.91 1002.88 1003.75 1004.42 1004.97 1005.60 1006.44 1006.87 1007.24 1007.54 1007.66 1007.89 1008.03 1008.19 1008.29 1008.22 1008.12 1008.03 1007.96 1007.90 1007.88 1007.93 1008.12 1008.34 1008.45 1008.84 1009.28 1009.59 1010.20 1010.72 1010.95
1001.80 1001.51 1001.15 1000.78 1000.73 1000.86 1001.09 1000.20 1000.12 1000.53 1000.60 1000.61 1000.41 1000.37 1000.41 1000.86 1000.66 1001.51 1001.99 1003.24 1003.93 1004.41 1005.10 1005.57 1006.20 1006.53 1006.87 1007.12 1007.35 1007.51 1007.65 1007.77 1007.70 1007.69 1007.65 1007.76 1007.70 1007.65 1007.64 1007.71 1007.92 1008.00 1008.22 1008.68 1009.13 1009.62 1009.97 1010.20 1010.38
Thickness
5824 5827 5826 5817 5800 5815 5797 5789 5814 5798 5796 5812 5815 5806 5803 5806 5796 5781 5807 5811 5807 5801 5791 5783 5780 5779 5778 5776 5775 5774 5772 5770 5767 5766 5766 5764 5762 5760 5757 5756 5756 5754 5753 5750 5748 5747 5744 5743 5741
5832 5825 5818 5816 5799 5794 5786 5811 5802 5808 5814 5818 5812 5809 5806 5796 5806 5801 5804 5810 5807 5803 5793 5787 5781 5781 5779 5776 5776 5774 5772 5769 5768 5766 5765 5763 5762 5760 5758 5757 5757 5755 5754 5751 5748 5747 5745 5744 5743
5830 5828 5814 5817 5812 5795 5789 5808 5810 5811 5819 5816 5809 5818 5811 5800 5804 5809 5818 5812 5808 5803 5797 5790 5784 5782 5780 5778 5777 5775 5772 5770 5769 5766 5764 5763 5762 5760 5759 5759 5759 5757 5755 5753 5751 5749 5747 5745 5743
5830 5826 5825 5811 5798 5803 5808 5815 5817 5813 5818 5823 5820 5806 5813 5814 5811 5818 5815 5813 5808 5805 5799 5789 5785 5783 5780 5778 5778 5775 5772 5771 5769 5767 5765 5764 5763 5761 5761 5761 5760 5759 5757 5755 5753 5752 5750 5748 5746
5834 5827 5816 5809 5804 5813 5821 5823 5823 5815 5817 5818 5821 5805 5802 5812 5818 5816 5813 5812 5807 5805 5800 5790 5786 5784 5782 5779 5778 5776 5774 5773 5771 5769 5768 5767 5766 5765 5763 5762 5762 5761 5758 5755 5753 5751 5752 5750 5749
5824 5830 5815 5801 5806 5816 5825 5829 5826 5821 5820 5816 5813 5810 5803 5815 5813 5814 5814 5811 5810 5806 5801 5793 5786 5785 5783 5781 5779 5776 5775 5774 5772 5771 5769 5768 5767 5766 5765 5765 5763 5761 5759 5757 5756 5754 5753 5752 5751
5821 5827 5809 5817 5811 5812 5819 5834 5827 5825 5818 5814 5825 5808 5807 5809 5816 5816 5813 5812 5811 5807 5803 5797 5790 5786 5783 5781 5779 5778 5776 5775 5774 5773 5772 5770 5769 5768 5767 5766 5764 5761 5760 5759 5758 5756 5755 5754 5753
5831 5828 5817 5822 5812 5808 5828 5830 5834 5833 5820 5834 5833 5811 5801 5816 5819 5817 5813 5810 5809 5807 5804 5800 5794 5791 5788 5786 5781 5778 5776 5775 5775 5774 5773 5771 5771 5770 5769 5767 5766 5764 5762 5761 5758 5755 5754 5755 5755
5840 5825 5813 5814 5815 5820 5835 5828 5837 5843 5830 5831 5831 5831 5835 5825 5822 5815 5808 5806 5804 5804 5805 5803 5800 5791 5790 5787 5787 5780 5778 5775 5775 5775 5773 5771 5777 5777 5773 5773 5768 5765 5763 5762 5761 5759 5757 5757 5754
5830 5828 5824 5835 5834 5831 5837 5838 5838 5833 5828 5825 5823 5832 5831 5823 5817 5813 5807 5805 5803 5802 5803 5804 5805 5801 5793 5793 5792 5786 5786 5784 5782 5782 5775 5777 5782 5780 5778 5775 5768 5765 5764 5764 5764 5763 5761 5761 5764
5833 5825 5834 5838 5846 5845 5843 5840 5848 5836 5823 5835 5825 5821 5822 5821 5817 5816 5814 5813 5809 5808 5807 5805 5805 5802 5801 5797 5793 5787 5792 5791 5784 5780 5778 5780 5782 5778 5776 5777 5775 5771 5768 5770 5770 5770 5765 5765 5768
5828 5838 5836 5840 5850 5847 5840 5849 5839 5839 5837 5848 5841 5830 5825 5819 5819 5818 5816 5815 5813 5810 5809 5809 5807 5803 5800 5799 5795 5796 5794 5793 5792 5787 5781 5781 5778 5779 5777 5779 5776 5771 5772 5772 5771 5774 5775 5767 5770
5831 5838 5844 5848 5853 5850 5850 5838 5839 5835 5843 5848 5838 5828 5823 5823 5821 5822 5821 5819 5816 5810 5809 5810 5807 5802 5800 5796 5796 5794 5795 5792 5792 5789 5785 5782 5781 5780 5779 5777 5775 5775 5775 5774 5773 5775 5774 5772 5772
5840 5840 5843 5847 5849 5851 5842 5841 5841 5835 5844 5837 5831 5826 5825 5825 5824 5823 5821 5819 5816 5814 5811 5811 5807 5802 5798 5796 5794 5794 5794 5794 5790 5790 5788 5782 5781 5780 5780 5778 5777 5776 5775 5775 5776 5775 5774 5774 5775
5844 5834 5844 5847 5838 5843 5849 5832 5833 5843 5844 5833 5830 5827 5826 5826 5827 5824 5824 5823 5823 5821 5819 5814 5809 5805 5800 5798 5796 5794 5795 5795 5794 5792 5788 5784 5781 5779 5777 5779 5778 5778 5776 5772 5772 5773 5775 5775 5776
5837 5839 5825 5844 5845 5842 5841 5819 5836 5845 5840 5833 5833 5829 5826 5828 5829 5831 5831 5829 5828 5825 5820 5818 5816 5811 5806 5803 5799 5798 5797 5796 5796 5794 5791 5785 5782 5780 5777 5778 5779 5779 5776 5774 5775 5774 5774 5775 5778
5833 5818 5820 5832 5852 5848 5842 5829 5842 5847 5843 5836 5834 5833 5831 5831 5833 5835 5836 5835 5834 5829 5824 5818 5816 5814 5811 5805 5801 5798 5797 5796 5796 5795 5794 5790 5785 5782 5777 5779 5780 5776 5776 5776 5775 5776 5773 5771 5772
5819 5830 5835 5830 5845 5846 5840 5840 5850 5848 5844 5842 5838 5837 5836 5836 5838 5840 5839 5840 5838 5835 5828 5823 5819 5815 5812 5809 5803 5802 5801 5800 5799 5798 5796 5794 5789 5784 5781 5779 5778 5775 5776 5776 5776 5771 5772 5770 5770
5840 5837 5835 5848 5851 5843 5843 5843 5852 5857 5849 5844 5844 5842 5839 5841 5850 5850 5846 5844 5841 5840 5834 5829 5823 5820 5814 5810 5807 5805 5804 5803 5802 5800 5797 5793 5788 5786 5781 5780 5779 5776 5773 5773 5772 5769 5764 5762 5766
5846 5843 5844 5853 5855 5848 5850 5853 5859 5859 5853 5852 5849 5849 5849 5849 5852 5852 5851 5849 5847 5845 5841 5836 5831 5827 5822 5820 5817 5815 5811 5810 5807 5805 5800 5794 5790 5787 5784 5780 5780 5779 5776 5771 5766 5763 5763 5767 5765
5852 5844 5845 5844 5853 5856 5852 5846 5853 5856 5861 5860 5862 5863 5861 5858 5856 5857 5855 5855 5856 5852 5849 5844 5837 5832 5829 5826 5823 5817 5813 5810 5808 5805 5802 5798 5791 5788 5784 5781 5778 5777 5773 5773 5770 5764 5758 5756 5760
5855 5856 5854 5851 5849 5844 5860 5824 5846 5860 5861 5860 5864 5864 5867 5868 5866 5865 5863 5862 5862 5862 5860 5854 5846 5839 5835 5829 5824 5820 5816 5805 5812 5808 5800 5795 5791 5785 5784 5781 5777 5772 5771 5772 5769 5766 5759 5753 5750
5842 5860 5858 5856 5852 5852 5847 5850 5847 5860 5852 5862 5874 5875 5877 5878 5876 5872 5871 5871 5871 5870 5866 5861 5852 5843 5838 5834 5825 5822 5815 5817 5811 5806 5797 5797 5792 5786 5778 5777 5776 5774 5771 5769 5765 5761 5757 5753 5748
5862 5856 5857 5861 5860 5833 5840 5845 5840 5858 5863 5871 5882 5883 5883 5882 5880 5880 5882 5879 5873 5873 5868 5863 5853 5843 5838 5832 5828 5819 5817 5815 5809 5807 5799 5792 5790 5789 5783 5776 5771 5769 5769 5766 5763 5759 5755 5752 5750
5858 5862 5846 5834 5842 5827 5846 5841 5845 5871 5877 5881 5882 5885 5887 5887 5881 5877 5873 5872 5871 5868 5864 5860 5851 5842 5838 5832 5827 5823 5816 5812 5808 5804 5801 5796 5791 5785 5783 5780 5773 5770 5767 5762 5759 5757 5752 5750 5743
5861 5861 5843 5804 5825 5835 5844 5833 5853 5879 5883 5883 5882 5885 5888 5882 5885 5884 5881 5875 5870 5867 5861 5856 5850 5842 5839 5833 5827 5822 5818 5814 5811 5808 5802 5798 5793 5790 5784 5779 5772 5767 5765 5760 5756 5750 5745 5740 5732
5852 5847 5868 5847 5848 5832 5850 5856 5878 5875 5874 5877 5877 5879 5881 5882 5884 5880 5879 5874 5869 5864 5859 5852 5844 5839 5834 5828 5822 5816 5813 5809 5806 5804 5801 5798 5791 5786 5781 5775 5771 5764 5759 5756 5754 5746 5738 5729 5726
5858 5866 5841 5856 5807 5804 5841 5835 5844 5852 5858 5865 5871 5876 5882 5886 5879 5877 5876 5869 5864 5860 5854 5846 5838 5831 5829 5823 5819 5815 5810 5805 5801 5797 5793 5790 5788 5784 5779 5773 5769 5764 5759 5753 5747 5742 5734 5725 5718
5851 5850 5846 5848 5836 5813 5813 5839 5867 5853 5856 5857 5867 5876 5877 5879 5875 5873 5871 5865 5857 5851 5846 5839 5830 5825 5820 5817 5813 5808 5803 5798 5794 5790 5788 5785 5782 5777 5773 5768 5763 5757 5754 5747 5739 5731 5723 5715 5709
5853 5841 5847 5821 5817 5827 5814 5819 5869 5861 5860 5861 5863 5868 5873 5870 5875 5868 5864 5853 5846 5840 5835 5830 5824 5819 5816 5812 5806 5800 5795 5791 5786 5782 5780 5776 5772 5769 5765 5760 5754 5750 5745 5738 5729 5720 5714 5707 5702